Location: Newark
(27.9675°N, 86.8869°E)
Time: 17:31:04
(UTC+00:00)

deb Explorer IX - Pass Details

Date: 24 October 2019
Orbit: 546 x 1105 km, 38.8° (Epoch: 13 November)

Event Time Altitude Azimuth Distance (km) Brightness Sun altitude
Rises 03:04:19 0° 198° (SSW) 2,698 ? 32.5°
Reaches altitude 10° 03:07:14 10° 175° (S) 1,842 ? 33.0°
Maximum altitude 03:09:47 16° 137° (SE) 1,553 ? 33.4°
Drops below altitude 10° 03:12:29 10° 100° (E) 1,958 ? 33.9°
Sets 03:15:43 0° 78° (ENE) 2,966 ? 34.5°
